Regional Weather Roundup
Issued by NWS Upton, NY

Current Version | Previous Version | Text Only | Print | Product List | Glossary On
Versions: 1 2 3 4 5 6 7 8 9 10 11 12 13 14 15 16 17 18 19 20 21 22 23 24 25 26 27 28 29 30 31 32 33 34 35 36 37 38 39 40 41 42 43 44 45 46 47 48 49 50
281
ASUS41 KOKX 211308
RWROKX

REGIONAL WEATHER ROUNDUP
NATIONAL WEATHER SERVICE NEW YORK NY
800 AM EST SAT JAN 21 2017

NOTE: "FAIR" INDICATES FEW OR NO CLOUDS BELOW 12,000 FEET WITH NO
SIGNIFICANT WEATHER AND/OR OBSTRUCTIONS TO VISIBILITY.

NYZ071-072-176-178-NJZ106-104-211400-
NEW YORK CITY METRO AREA

CITY           SKY/WX    TMP DP  RH WIND       PRES   REMARKS
Central Park   CLOUDY    42  41  96 VRB3      29.90F FOG
Wall St Helipt CLOUDY    43  41  93 W7        29.90S
LaGuardia APRT CLOUDY    45  41  86 SW8       29.88S
Kennedy INTL   CLOUDY    43  43 100 SW9       29.90S FOG
Breezy Point     N/A     41 N/A N/A W7          N/A
Newark/Liberty CLOUDY    43  41  93 SW8       29.89S FOG
Teterboro      CLOUDY    43  41  93 VRB6      29.87F FOG
$$

NYZ177-179-078>081-211400-
LONG ISLAND NEW YORK

CITY           SKY/WX    TMP DP  RH WIND       PRES   REMARKS
Jones Beach      N/A     41 N/A N/A W7          N/A
Matinecock PT  NOT AVBL
Farmingdale    CLOUDY    43  42  97 W6        29.89S FOG
MacArthur/ISP  FOG       42  42 100 SW6       29.89R VSB 1
Shirley        CLOUDY    42  42 100 S5        29.89S FOG
Westhampton    CLOUDY    43  41  93 W3        29.90S FOG
Southampton    NOT AVBL
Bridgehampton  NOT AVBL
East Hampton   CLOUDY    42  40  94 CALM      29.89R FOG
Montauk          N/A     43  42  97 W6        29.90R
$$

NYZ052-065-067-211400-
HUDSON VALLEY

CITY           SKY/WX    TMP DP  RH WIND       PRES   REMARKS
White Plains     N/A     41  39  93 W3        29.85F FOG
Newburgh       MOCLDY    39  39 100 W5        29.86F
Montgomery     CLOUDY    40  38  93 SW9       29.85F FOG     WCI  34
Poughkeepsie   CLOUDY    40  38  93 S3        29.85F
Albany         CLOUDY    39  36  89 S6        29.85S WCI  35
$$

NJZ001-105-106-008-010-013-015-019>022-104-211400-
NEW JERSEY

CITY           SKY/WX    TMP DP  RH WIND       PRES   REMARKS
Newark/Liberty CLOUDY    43  41  93 SW8       29.89S FOG
Teterboro      CLOUDY    43  41  93 VRB6      29.87F FOG
Caldwell       CLOUDY    41  40  96 VRB3      29.88S FOG
Somerville     CLOUDY    42  40  92 CALM      29.87F FOG
Linden         CLOUDY    43  40  91 CALM      29.89F
Sussex         CLOUDY    39  39 100 SW5       29.87S FOG
Andover          N/A     39  38  96 CALM      29.87F
Trenton        FOG       42  42 100 SW3       29.89F VSB 1
Millville      FOG       44  44 100 CALM      29.91S VSB 1/2
Atlantic City  FOG       44  43  96 CALM      29.91F VSB 1/2
Wrightstown    CLOUDY    43  42  97 CALM      29.87F FOG
Toms River     CLOUDY    44  43  96 SW3       29.91F FOG
Belmar         CLOUDY    43  42  97 W6        29.90F FOG
$$

PAZ047>061-062-071-211400-
EASTERN PENNSYLVANIA

CITY           SKY/WX    TMP DP  RH WIND       PRES   REMARKS
Philadelphia   FOG       43  43 100 W6        29.92R VSB 1/4
Allentown      FOG       40  38  93 SW8       29.89S VSB 1/2 WCI  34
Scranton       FOG       40  40 100 SW5       29.87S VSB 1/2
$$

CTZ002-004>006-009-010-012-RIZ004-006-007-MAZ004-011-015-211400-
SOUTHERN NEW ENGLAND
 IN CT

CITY           SKY/WX    TMP DP  RH WIND       PRES   REMARKS
Bradley INTL   MOCLDY    37  37 100 SE5       29.86R FOG     WCI  33
Hartford       CLOUDY    40  39  97 SW5       29.87S FOG
Danbury        CLOUDY    39  38  96 CALM      29.87S FOG
Wtrbury/Oxford FOG       39  36  87 CALM      29.87S VSB 1/8
Bridgeport     CLOUDY    42  39  89 SW3       29.88S FOG
Meriden        CLOUDY    41  38  89 S5        29.87S FOG
New Haven      CLOUDY    40  39  97 SW6       29.88S FOG
Chester        FOG       39  39 100 CALM      29.86F VSB 1/4
Groton         CLOUDY    42  40  92 W7        29.88R FOG
Wilimantic     CLOUDY    40  38  93 E3        29.86F FOG

 IN RI

CITY           SKY/WX    TMP DP  RH WIND       PRES   REMARKS
Providence     CLOUDY    42  38  85 W5        29.87S
Block Island   NOT AVBL
Westerly       CLOUDY    43  39  86 W6        29.89R FOG
 IN MA

CITY           SKY/WX    TMP DP  RH WIND       PRES   REMARKS
Boston         CLOUDY    40  38  93 SW12      29.85S WCI  33
Worcester      FOG       35  34  96 SW8       29.82S VSB 1/4 WCI  29
Westfield      FOG       37  37 100 CALM      29.85R VSB 1/4
Provincetown   CLOUDY    41  38  89 S13       29.86S
Nantucket      CLOUDY    42  39  89 S6        29.88S FOG
$$

ANZ330-335-338-340-345-350-353-355-211400-
COASTAL MARINE OBSERVATIONS


STATION/POSITION TIME  SKY/WX   TEMP    WIND        PRES    VSBY  WAVE
                                AIR SEA DIR/SP/G                  HT/PER
                 (UTC)          (F)     (DEG/KT/KT) (MB)    (MI)  (FT/S)
NY HARB ENTRANCE 1150            44 43  240/  8/ 10 1012.4          2/13
20 S FIRE ISLAND 1150            44 45  270/ 14/ 16 1012.2          4/11
GREAT SOUTH BAY  NOT AVBL
23 SSW MONTAUK P 1150            45 48  260/ 10/ 12 1012.3          3/11
15 E BARNEGAT LI 1230               47                N/A           3/11
HUDSON CANYON    1150            51 51              1012.6          4/10
KINGS POINT      1230            42 39              1011.9
EXECUTION ROCKS  1245            42     220/  4/  6   N/A
CENTRAL LI SOUND 1215            41     250/  4/  6   N/A           0
EASTERN LI SOUND NOT AVBL
ROBBINS REEF     1236            43     250/  8/ 11 1012.3
$$


>>>>>>>>>>>>>>>>>>>>>>>>>>>> KEY <<<<<<<<<<<<<<<<<<<<<<<<<<<
>                                                          <
>     SKY/WX - Sky Condition/Present Weather               <
>     TMP    - Temperature in Fahrenheit                   <
>     DP     - Dew Point in Fahrenheit                     <
>     RH     - Relative Humidity in Percent                <
>     WIND   - Direction (from) and Speed in MPH           <
>     PRES   - Mean Sea Level Pressure (inches of Hg)      <
>     WCI    - Wind Chill Index                            <
>     VSB    - VISIBILITY IN MILES                         <
>     HX     - HEAT INDEX                                  <
>     TC     - TEMPERATURE IN CELSIUS                      <
>     VRB    - VARIABLE WIND DIRECTION                     <
>                                                          <
>>>>>>>>>>>>>>>>>>>>>>>>>>>> KEY <<<<<<<<<<<<<<<<<<<<<<<<<<<




USA.gov is the U.S. government's official web portal to all federal, state and local government web resources and services.